Weather History for Rhinelander, WI

Change the Weather History Date:

Saturday, November 8, 2014

  Actual Average Record
Temperature  
Mean Temperature 30 °F 34 °F  
Max Temperature 34 °F 42 °F 69 °F (1999)
Min Temperature 25 °F 27 °F 0 °F (2003)
Degree Days  
Heating Degree Days 35 31  
Month to date heating degree days 242 232  
Since 1 July heating degree days 1441 1325  
Cooling Degree Days 0 0  
Month to date cooling degree days 0 0  
Year to date cooling degree days 148 261  
Moisture  
Dew Point 26 °F    
Average Humidity 76    
Maximum Humidity 96    
Minimum Humidity 56    
Precipitation  
Precipitation 0.03 in 0.06 in 1.16 in (1916)
Month to date precipitation 0.67 0.52  
Year to date precipitation 36.95 28.64  
Snow  
Snow 0.10 in - 3.00 in (1938)
Month to date snowfall 4.0  
Since 1 July snowfall 6.7  
Since 1 September snowfall 6.7  
Snow Depth 1.00 in    
Sea Level Pressure  
Sea Level Pressure 29.76 in    
Wind  
Wind Speed 11 mph (WNW)    
Max Wind Speed 20 mph    
Max Gust Speed 30 mph    
Visibility 8 miles    
Events Snow    
T = Trace of Precipitation, MM = Missing Value Source: NWS Daily Summary

Daily Weather History Graph

Daily Weather History Graph

Search for Another Location

Airport:

Trip Planner

Search our weather history database for the weather conditions in past years. The results will help you decide how hot, cold, wet, or windy it might be!

Date:

Astronomy

Nov. 08, 2014 Rise Set
Actual Time 6:47 AM CST 4:35 PM CST
Civil Twilight 6:15 AM CST 5:06 PM CST
Nautical Twilight 5:40 AM CST 5:42 PM CST
Astronomical Twilight 5:05 AM CST 6:16 PM CST
Moon 6:14 PM CST (11/8) 8:25 AM CST (11/8)
Length of Visible Light 10h 50m
Length of Day
9h 47m
Waning Gibbous, 96% of the Moon is Illuminated
Nov 8
Waning Gibbous
Nov 14
Last Quarter
Nov 22
New
Nov 29
First Quarter
Dec 6
Full

Hourly Weather History & Observations

Time (CST) Temp. Windchill Dew Point Humidity Pressure Visibility Wind Dir Wind Speed Gust Speed Precip Events Conditions
12:53 AM 33.1 °F 24.9 °F 30.9 °F 92% 29.65 in 3.0 mi SW 10.4 mph - N/A   Overcast
1:02 AM 33.1 °F 24.9 °F 30.9 °F 92% 29.60 in 2.5 mi WSW 10.4 mph - 0.00 in Snow Light Snow
1:17 AM 33.1 °F 26.1 °F 32.0 °F 96% 29.60 in 3.0 mi WSW 8.1 mph - 0.00 in   Overcast
1:45 AM 33.1 °F 25.5 °F 32.0 °F 96% 29.60 in 2.5 mi WSW 9.2 mph - 0.00 in   Overcast
1:53 AM 33.1 °F 24.9 °F 32.0 °F 96% 29.65 in 3.0 mi West 10.4 mph - 0.00 in   Overcast
2:53 AM 34.0 °F 25.5 °F 32.0 °F 92% 29.67 in 10.0 mi WNW 11.5 mph - 0.00 in   Overcast
3:04 AM 34.0 °F 24.6 °F 32.0 °F 92% 29.62 in 10.0 mi WNW 13.8 mph 23.0 mph N/A   Overcast
3:53 AM 34.0 °F 26.6 °F 32.0 °F 92% 29.68 in 8.0 mi WNW 9.2 mph 18.4 mph 0.00 in Snow Light Snow
4:53 AM 34.0 °F 24.6 °F 30.9 °F 89% 29.70 in 10.0 mi NW 13.8 mph 21.9 mph 0.00 in   Overcast
5:03 AM 34.0 °F 25.0 °F 30.9 °F 89% 29.66 in 10.0 mi WNW 12.7 mph 20.7 mph N/A   Overcast
5:22 AM 34.0 °F 26.0 °F 30.9 °F 89% 29.67 in 10.0 mi NW 10.4 mph 19.6 mph N/A   Overcast
5:33 AM 34.0 °F 24.2 °F 30.9 °F 89% 29.68 in 10.0 mi NW 15.0 mph 24.2 mph N/A   Overcast
5:53 AM 34.0 °F 25.0 °F 30.9 °F 89% 29.74 in 9.0 mi WNW 12.7 mph 24.2 mph 0.00 in   Overcast
6:53 AM 33.1 °F 23.4 °F 28.9 °F 85% 29.78 in 8.0 mi NW 13.8 mph 27.6 mph 0.00 in Snow Light Snow
7:08 AM 33.1 °F 23.0 °F 30.0 °F 89% 29.74 in 1.5 mi NW 15.0 mph 26.5 mph 0.00 in Snow Light Snow
7:20 AM 33.1 °F 24.4 °F 30.0 °F 89% 29.74 in 3.0 mi NW 11.5 mph 21.9 mph 0.00 in Snow Light Snow
7:27 AM 33.1 °F 24.9 °F 28.9 °F 85% 29.75 in 1.8 mi NNW 10.4 mph 21.9 mph 0.00 in Snow Light Snow
7:39 AM 33.1 °F 24.9 °F 28.0 °F 82% 29.76 in 3.0 mi NNW 10.4 mph 23.0 mph 0.00 in Snow Light Snow
7:53 AM 33.1 °F 24.9 °F 27.0 °F 78% 29.81 in 10.0 mi NW 10.4 mph 23.0 mph 0.00 in   Overcast
8:53 AM 32.0 °F 21.2 °F 27.0 °F 82% 29.83 in 10.0 mi WNW 16.1 mph 24.2 mph N/A   Overcast
9:53 AM 30.9 °F 21.2 °F 24.1 °F 76% 29.86 in 10.0 mi WNW 12.7 mph 23.0 mph N/A   Overcast
10:53 AM 30.9 °F 21.7 °F 21.0 °F 67% 29.88 in 10.0 mi NW 11.5 mph 24.2 mph N/A   Overcast
11:53 AM 30.9 °F 22.8 °F 19.0 °F 61% 29.87 in 10.0 mi NW 9.2 mph 25.3 mph N/A   Overcast
12:53 PM 30.9 °F 20.7 °F 21.0 °F 67% 29.87 in 10.0 mi WNW 13.8 mph - N/A   Overcast
1:53 PM 30.9 °F 20.2 °F 23.0 °F 72% 29.86 in 10.0 mi WNW 15.0 mph 23.0 mph N/A   Overcast
2:53 PM 32.0 °F 22.1 °F 19.0 °F 59% 29.85 in 10.0 mi WNW 13.8 mph 25.3 mph N/A   Scattered Clouds
3:53 PM 33.1 °F 23.9 °F 19.0 °F 56% 29.85 in 10.0 mi West 12.7 mph - N/A   Partly Cloudy
4:53 PM 30.0 °F 20.5 °F 18.0 °F 61% 29.86 in 10.0 mi West 11.5 mph - N/A   Partly Cloudy
5:53 PM 27.0 °F 19.5 °F 17.1 °F 66% 29.86 in 10.0 mi West 6.9 mph - N/A   Clear
6:53 PM 26.1 °F 17.6 °F 17.1 °F 69% 29.87 in 10.0 mi West 8.1 mph - N/A   Clear
7:53 PM 28.9 °F 19.8 °F 19.0 °F 67% 29.86 in 10.0 mi West 10.4 mph - N/A   Overcast
8:53 PM 28.9 °F 21.1 °F 19.0 °F 67% 29.83 in 10.0 mi WSW 8.1 mph - N/A   Overcast
9:53 PM 30.0 °F 21.7 °F 21.0 °F 69% 29.82 in 10.0 mi WSW 9.2 mph - N/A   Overcast
10:53 PM 30.0 °F 21.1 °F 21.9 °F 72% 29.81 in 10.0 mi WSW 10.4 mph - N/A   Overcast
11:29 PM 28.9 °F 21.1 °F 25.0 °F 85% 29.74 in 2.5 mi WSW 8.1 mph - 0.00 in Snow Light Snow
11:36 PM 28.9 °F 19.8 °F 25.0 °F 85% 29.74 in 3.0 mi WSW 10.4 mph - 0.00 in Snow Light Snow
11:53 PM 28.9 °F 19.8 °F 26.1 °F 89% 29.80 in 2.5 mi WSW 10.4 mph - 0.00 in Snow Light Snow